Location: Civry
(47.2902°N, 4.6156°E)
Time: 03:19:41
(UTC+00:00)

Cosmos 1455 - Pass Details

Date: 09 April 2020
Orbit: 498 x 524 km, 82.5° (Epoch: 04 June)

Event Time Altitude Azimuth Distance (km) Brightness Sun altitude
Exits shadow 19:55:52 13° 63° (ENE) 1,594 4.4 -15.4°
Drops below altitude 10° 19:56:40 10° 52° (NE) 1,747 4.7 -15.6°
Sets 19:59:38 0° 27° (NNE) 2,653 5.9 -16.0°
